TimeMDT,TemperatureF,Dew PointF,Humidity,Sea Level PressureIn,VisibilityMPH,Wind Direction,Wind SpeedMPH,Gust SpeedMPH,PrecipitationIn,Events,Conditions,WindDirDegrees,DateUTC
12:07 AM,78.8,62.6,57,29.98,10.0,NNW,18.4,21.9,N/A,,Scattered Clouds,330,2013-08-29 06:07:00
12:51 AM,73.9,61.0,64,29.85,10.0,NNE,17.3,-,N/A,,Clear,30,2013-08-29 06:51:00
1:51 AM,72.0,61.0,68,29.85,10.0,SE,3.5,-,N/A,,Clear,130,2013-08-29 07:51:00
2:51 AM,71.1,62.1,73,29.86,10.0,NE,3.5,-,N/A,,Clear,50,2013-08-29 08:51:00
3:51 AM,66.9,62.1,84,29.88,10.0,NW,3.5,-,N/A,,Clear,320,2013-08-29 09:51:00
4:51 AM,64.9,59.0,81,29.89,10.0,WNW,9.2,-,N/A,,Clear,290,2013-08-29 10:51:00
5:51 AM,63.0,57.9,84,29.91,10.0,WNW,11.5,-,N/A,,Clear,290,2013-08-29 11:51:00
6:51 AM,63.0,59.0,87,29.94,10.0,WNW,6.9,-,N/A,,Clear,290,2013-08-29 12:51:00
7:51 AM,66.9,61.0,81,29.96,10.0,NW,11.5,-,N/A,,Clear,310,2013-08-29 13:51:00
8:51 AM,71.1,61.0,70,29.98,10.0,NW,11.5,-,N/A,,Clear,310,2013-08-29 14:51:00
9:51 AM,73.9,62.1,66,29.98,10.0,NW,8.1,-,N/A,,Clear,310,2013-08-29 15:51:00
10:51 AM,80.1,60.1,50,29.98,10.0,NW,12.7,-,N/A,,Clear,310,2013-08-29 16:51:00
11:51 AM,82.0,60.1,47,29.98,10.0,WNW,11.5,-,N/A,,Clear,300,2013-08-29 17:51:00
12:51 PM,86.0,57.0,37,29.97,10.0,WNW,5.8,-,N/A,,Clear,300,2013-08-29 18:51:00
1:51 PM,87.1,57.0,36,29.97,10.0,WNW,10.4,-,N/A,,Clear,300,2013-08-29 19:51:00
2:51 PM,88.0,55.0,32,29.97,10.0,NW,10.4,-,N/A,,Clear,310,2013-08-29 20:51:00
3:51 PM,89.1,53.1,29,29.96,10.0,North,8.1,-,N/A,,Clear,350,2013-08-29 21:51:00
4:51 PM,88.0,53.1,30,29.96,10.0,NW,8.1,-,N/A,,Clear,310,2013-08-29 22:51:00
5:51 PM,86.0,54.0,33,29.97,10.0,NW,8.1,-,N/A,,Clear,320,2013-08-29 23:51:00
6:51 PM,84.0,57.9,41,29.98,10.0,North,3.5,-,N/A,,Clear,360,2013-08-30 00:51:00
7:51 PM,78.1,59.0,52,29.99,10.0,Calm,Calm,-,N/A,,Clear,0,2013-08-30 01:51:00
8:51 PM,70.0,57.9,65,30.01,10.0,Calm,Calm,-,N/A,,Clear,0,2013-08-30 02:51:00
9:51 PM,66.0,57.9,75,30.01,10.0,SSE,4.6,-,N/A,,Clear,160,2013-08-30 03:51:00
10:51 PM,70.0,57.9,65,30.00,10.0,SE,3.5,-,N/A,,Clear,140,2013-08-30 04:51:00
11:51 PM,68.0,57.0,68,29.99,10.0,SE,4.6,-,N/A,,Clear,130,2013-08-30 05:51:00